Terminal Aerodrome Forecast
Issued by NWS

Home | Current Version | Previous Version | Text Only | Print | Product List | Glossary On
Versions: 1 2 3 4 5 6 7 8 9 10 11 12 13 14 15 16 17 18 19 20 21 22 23 24 25
243
FTUS46 KLOX 240853 AAA
TAFLAX
TAF AMD
KLAX 240853Z 2409/2512 VRB05KT P6SM BKN140
     FM241200 VRB05KT 5SM BR BKN006 BKN150
     FM241600 13005KT 6SM HZ SCT008 SCT120
     FM241900 24008KT 6SM HZ SCT120
     FM242100 26011KT P6SM SCT120
     FM250800 VRB05KT 6SM BR BKN008 BKN120=

USA.gov is the U.S. government's official web portal to all federal, state and local government web resources and services.